Regional Weather Roundup
Issued by NWS Mobile, AL

Home | Current Version | Previous Version | Text Only | Print | Product List | Glossary On
Versions: 1 2 3 4 5 6 7 8 9 10 11 12 13 14 15 16 17 18 19 20 21 22 23 24 25 26 27
000
ASUS44 KMOB 030012
RWRMOB
REGIONAL WEATHER ROUNDUP
NATIONAL WEATHER SERVICE MOBILE AL
600 PM CST FRI DEC 02 2016

NOTE: "FAIR" INDICATES FEW OR NO CLOUDS BELOW 12,000 FEET WITH NO
      SIGNIFICANT WEATHER AND/OR OBSTRUCTIONS TO VISIBILITY.

  * THESE STATIONS ARE PART OF THE UNIVERSITY OF SOUTH ALABAMA
    MESONET AND ARE NOT UNDER NWS OR FAA QUALITY CONTROL.

ALZ061>064-030100-
COASTAL ALABAMA

CITY           SKY/WX    TMP DP  RH WIND       PRES   REMARKS
MOBILE REG APT CLOUDY    56  38  50 NE6       30.22R
6HR MIN TEMP:  56; 6HR MAX TEMP:  66;

BROOKLEY FIELD PTCLDY    63  40  42 NE9       30.23R
6HR MIN TEMP:  63; 6HR MAX TEMP:  68;

USA CAMPUS*      N/A     54  41  62 CALM      30.21F
DOG RIVER*       N/A     61  41  48 NE2       31.03F


CITY           SKY/WX    TMP DP  RH WIND       PRES   REMARKS
GULF SHORES    CLOUDY    56  37  47 CALM      30.21R

$$

ALZ051>060-030100-
INTERIOR SOUTHWEST AND SOUTH CENTRAL ALABAMA

CITY           SKY/WX    TMP DP  RH WIND       PRES   REMARKS
GREENVILLE     MOCLDY    53  39  59 CALM      30.23R
6HR MIN TEMP:  52; 6HR MAX TEMP:  66;

EVERGREEN      MOCLDY    52  38  58 CALM      30.24R
6HR MIN TEMP:  51; 6HR MAX TEMP:  66;

ATMORE*          N/A     52  39  62 N3        30.25R
ANDALUSIA/OPP  MOCLDY    59  35  40 CALM      30.23R
6HR MIN TEMP:  59; 6HR MAX TEMP:  70;

ANDALUSIA*       N/A     55  34  44 VRB3      30.22R
FLORALA APT    CLOUDY    57  33  40 N6        30.24R
6HR MIN TEMP:  51; 6HR MAX TEMP:  66; 6HR PCP: TRACE;

FLORALA*         N/A     57  37  47 CALM      31.01R

$$

FLZ001>006-030100-
WESTERN FLORIDA PANHANDLE

CITY           SKY/WX    TMP DP  RH WIND       PRES   REMARKS
PENSACOLA      PTCLDY    60  35  39 CALM      30.22R
6HR MIN TEMP:  60; 6HR MAX TEMP:  68;

NAS PENSACOLA  CLOUDY    57  36  45 N6        30.21R
6HR MIN TEMP:  57; 6HR MAX TEMP:  69;

MILTON         CLOUDY    53  36  52 N3        30.22R
6HR MIN TEMP:  52; 6HR MAX TEMP:  67;

WHTNG S FIELD  MOCLDY    59  36  42 N6        30.22R
6HR MIN TEMP:  58; 6HR MAX TEMP:  70;



CITY           SKY/WX    TMP DP  RH WIND       PRES   REMARKS
JAY*             N/A     57  30  35 N3        30.23R
DUKE FIELD     MOCLDY    57  34  41 N5        30.22R
CRESTVIEW      CLOUDY    58  33  39 N3        30.23R
6HR MIN TEMP:  54; 6HR MAX TEMP:  69;

VALPARAISO     CLOUDY    58  35  40 N5        30.21R
6HR MIN TEMP:  58; 6HR MAX TEMP:  68;

DESTIN         CLOUDY    63  37  38 VRB3      30.21R
6HR MIN TEMP:  63; 6HR MAX TEMP:  69;


$$

MSZ076-079-030100-
INTERIOR SOUTHEAST MISSISSIPPI

CITY           SKY/WX    TMP DP  RH WIND       PRES   REMARKS
LEAKESVILLE*   NOT AVBL
AGRICOLA*      NOT AVBL

$$

MARINE OBSERVATIONS

STATION/POSITION TIME  TEMP    WIND        PRES    WAVE
                       AIR SEA DIR/SP/G            HT/PER
                 (UTC) (F)     (DEG/KT/KT) (MB)    (FT/S)
GRAND BAY        2245   62      40/  3     1023.0S
KATRINA CUT      2230   63      60/ 10     1022.4R
CEDAR POINT      2230   62      80/  8     1022.0R
E DAUPHIN ISLAND 2300   63      40/  8/  8 1022.7R
MIDDLE BAY LIGHT 2230   63      50/  9     1022.4R
MEAHER PARK      2300   61     360/  2     1023.4
WEEKS BAY        2245   60                   N/A
12 S ORANGE BCH  2350   66 72   50/ 14/ 19 1023.1R   3/ 5
64 S DAUPHIN ISL 2350   68 76   70/ 17/ 21 1021.1F   5/ 6
67 S FORT MORGAN 2330   66      60/ 17     1021.7R

$$

SELECTED LOCATIONS ACROSS THE REGION

CITY           SKY/WX    TMP DP  RH WIND       PRES   REMARKS
NEW ORLEANS    CLOUDY    61  42  49 E12       30.19R
GULFPORT       PTCLDY    60  39  45 NE6       30.19S
PASCAGOULA AP  MOCLDY    56  38  50 NE3       30.20F
PASCAGOULA*    NOT AVBL
HATTIESBURG    MOCLDY    57  34  41 CALM      30.23R
LAUREL         CLOUDY    55  30  38 E3        30.25R
MERIDIAN       PTCLDY    50  38  63 NW3       30.26R
JACKSON        PTCLDY    53  35  50 E5        30.23R
MONTGOMERY     PTCLDY    57  29  34 N6        30.25R
TROY           CLOUDY    49  39  68 CALM      30.24R
ASHFORD*         N/A     55  34  44 VRB3      30.22R
DOTHAN         CLOUDY    54  38  54 N6        30.26R
PANAMA CITY    MOCLDY    54  40  59 CALM      30.19R

$$





USA.gov is the U.S. government's official web portal to all federal, state and local government web resources and services.